Location: Karlovy Vary
(50.2170°N, 12.9000°E)
Time: 15:30:13
(UTC+02:00)

ISS - Visible Passes

Search period start: 26 June 2022 00:00
Search period end: 06 July 2022 00:00
Orbit: 415 x 420 km, 51.6° (Epoch: 26 June)

Date Brightness Start Highest point End Pass type
(mag) Time Alt. Az. Time Alt. Az. Time Alt. Az.
28 Jun -1.7 04:09:48 10° S 04:12:10 18° SE 04:14:32 10° E visible
29 Jun -1.3 03:23:22 10° SSE 03:24:46 12° SE 03:26:09 10° ESE visible
30 Jun -2.8 04:10:30 10° SW 04:13:38 37° SSE 04:16:47 10° E visible
01 Jul -2.4 03:24:41 16° S 03:26:32 26° SE 03:29:26 10° E visible
02 Jul -2.0 02:39:13 18° SSE 02:39:40 18° SE 02:42:04 10° E visible
02 Jul -3.7 04:12:43 10° WSW 04:16:05 70° SSE 04:19:29 10° ENE visible
03 Jul -1.3 01:53:54 12° ESE 01:53:54 12° ESE 01:54:32 10° ESE visible
03 Jul -3.5 03:26:53 17° SW 03:29:17 52° SSE 03:32:37 10° ENE visible
04 Jul -3.1 02:41:42 30° S 02:42:43 38° SSE 02:45:55 10° E visible
04 Jul -3.6 04:16:04 10° W 04:19:29 77° N 04:22:54 10° ENE visible
05 Jul -2.5 01:56:40 27° SE 01:56:40 27° SE 01:59:19 10° E visible
05 Jul -3.8 03:29:40 10° WSW 03:33:01 90° N 03:36:27 10° ENE visible
